Skip Page Navigation
NASA JPL Caltech
NASA Logo - Jet Propulsion Laboratory + View the NASA Portal
+ Center for Near-Earth Object Studies
JPL Home Earth Solar System Stars & Galaxies Technology
JPL Solar System Dynamics
BODIES ORBITS EPHEMERIDES TOOLS PHYSICAL DATA DISCOVERY FAQ SITE MAP
IMPORTANT: The SSD Announcement email list is now available. Major changes are coming in the near future, including possible hostname and/or URL changes. To be notified of such changes, subscribe to this email list.

Please visit this page for more details.


JPL Small-Body Database Browser
Search: [ help ]  
423105 (2004 BF13)
Classification: Main-belt Asteroid          SPK-ID: 2423105
Ephemeris | Orbit Diagram | Orbital Elements | Mission Design | Physical Parameters | Discovery Circumstances | Close-Approach Data ]

[ show orbit diagram ]
Orbital Elements at Epoch 2459000.5 (2020-May-31.0) TDB
Reference: JPL 17 (heliocentric ecliptic J2000)
 Element Value Uncertainty (1-sigma)   Units 
e .1576004767149719 8.9545e-08  
a 3.108587040896313 3.8468e-08 au
q 2.61867224134107 2.7718e-07 au
i 28.32914695910817 1.0215e-05 deg
node 123.6972474011305 1.0508e-05 deg
peri 24.46889647299608 2.5337e-05 deg
M 340.5325972680378 2.2548e-05 deg
tp 2459108.755130482344
(2020-Sep-16.25513048)
0.00012652 TDB
period 2001.902745334314
5.48
3.7159e-05
1.017e-07
d
yr
n .1798289156848529 3.338e-09 deg/d
Q 3.598501840451556 4.453e-08 au
  Orbit Determination Parameters
   # obs. used (total)      256  
   data-arc span      5342 days (14.63 yr)  
   first obs. used      2003-12-22  
   last obs. used      2018-08-07  
   planetary ephem.      DE431  
   SB-pert. ephem.      SB431-N16  
   condition code      0  
   norm. resid. RMS      .58685  
   source      ORB  
   producer      Otto Matic  
   solution date      2018-Oct-04 12:05:34  

Additional Information
 Earth MOID = 1.64894 au 
 Jupiter MOID = 1.52397 au 
 T_jup = 3.018 
[ show covariance matrix ]

Ephemeris | Orbit Diagram | Orbital Elements | Mission Design | Physical Parameters | Discovery Circumstances | Close-Approach Data ]

Physical Parameter Table
Parameter Symbol Value Units Sigma Reference Notes
absolute magnitude H 15.9   n/a MPO419083  
diameter diameter 4.174 km 0.091 urn:nasa:pds:neowise_diameters_albedos::2.0[mainbelt] (http://adsabs.harvard.edu/abs/2011ApJ...741...68M)  
geometric albedo albedo 0.058   0.008 urn:nasa:pds:neowise_diameters_albedos::2.0[mainbelt] (http://adsabs.harvard.edu/abs/2011ApJ...741...68M)  

423105 (2004 BF13)          Discovered 2004-Jan-17 by NEAT at Palomar
Reference: Last Updated: 2015-02-04

[ show close-approach data ]
Ephemeris | Orbit Diagram | Orbital Elements | Mission Design | Physical Parameters | Discovery Circumstances | Close-Approach Data ]
ABOUT SSD CREDITS/AWARDS PRIVACY/COPYRIGHT GLOSSARY LINKS
FirstGov 2020-Feb-24 21:53 UT
(server date/time)  
NASA Home Page
Site Manager:   Ryan S. Park
Webmaster  Alan B. Chamberlin